TimeEST,TemperatureF,Dew PointF,Humidity,Sea Level PressureIn,VisibilityMPH,Wind Direction,Wind SpeedMPH,Gust SpeedMPH,PrecipitationIn,Events,Conditions,WindDirDegrees,DateUTC
12:15 AM,24.8,12.2,59,30.32,10.0,WNW,5.8,-,N/A,,Overcast,290,2013-01-18 05:15:00
12:35 AM,24.8,12.2,59,30.32,10.0,WNW,4.6,-,N/A,,Overcast,300,2013-01-18 05:35:00
12:54 AM,24.8,14.0,64,30.32,10.0,West,3.5,-,N/A,,Overcast,280,2013-01-18 05:54:00
1:15 AM,24.8,14.0,64,30.32,10.0,WSW,3.5,-,N/A,,Overcast,250,2013-01-18 06:15:00
1:35 AM,24.8,14.0,64,30.33,10.0,West,8.1,-,N/A,,Overcast,280,2013-01-18 06:35:00
1:55 AM,24.8,14.0,64,30.35,10.0,West,8.1,-,N/A,,Overcast,280,2013-01-18 06:55:00
2:15 AM,24.8,12.2,59,30.36,10.0,West,6.9,-,N/A,,Overcast,280,2013-01-18 07:15:00
2:34 AM,24.8,12.2,59,30.37,10.0,West,5.8,-,N/A,,Overcast,270,2013-01-18 07:34:00
2:55 AM,24.8,14.0,64,30.37,10.0,West,5.8,-,N/A,,Overcast,270,2013-01-18 07:55:00
3:14 AM,24.8,14.0,64,30.37,10.0,West,5.8,-,N/A,,Overcast,280,2013-01-18 08:14:00
3:35 AM,24.8,15.8,69,30.37,10.0,West,3.5,-,N/A,,Overcast,270,2013-01-18 08:35:00
3:55 AM,24.8,15.8,69,30.37,10.0,Calm,Calm,-,N/A,,Overcast,0,2013-01-18 08:55:00
4:14 AM,23.0,15.8,74,30.37,10.0,Calm,Calm,-,N/A,,Overcast,0,2013-01-18 09:14:00
4:35 AM,21.2,15.8,80,30.37,10.0,Calm,Calm,-,N/A,,Overcast,0,2013-01-18 09:35:00
4:55 AM,21.2,15.8,80,30.37,10.0,Calm,Calm,-,N/A,,Scattered Clouds,0,2013-01-18 09:55:00
5:15 AM,21.2,14.0,74,30.37,10.0,West,8.1,-,N/A,,Clear,260,2013-01-18 10:15:00
5:35 AM,21.2,14.0,74,30.38,10.0,West,3.5,-,N/A,,Scattered Clouds,270,2013-01-18 10:35:00
5:54 AM,21.2,14.0,74,30.37,10.0,Calm,Calm,-,N/A,,Scattered Clouds,0,2013-01-18 10:54:00
6:15 AM,21.2,15.8,80,30.38,10.0,Calm,Calm,-,N/A,,Scattered Clouds,0,2013-01-18 11:15:00
6:35 AM,21.2,15.8,80,30.37,10.0,Calm,Calm,-,N/A,,Scattered Clouds,0,2013-01-18 11:35:00
6:54 AM,21.2,15.8,80,30.38,10.0,SW,4.6,-,N/A,,Clear,230,2013-01-18 11:54:00
7:15 AM,21.2,15.8,80,30.38,10.0,WSW,3.5,-,N/A,,Clear,240,2013-01-18 12:15:00
7:35 AM,21.2,15.8,80,30.38,10.0,SW,4.6,-,N/A,,Scattered Clouds,230,2013-01-18 12:35:00
7:54 AM,21.2,15.8,80,30.38,10.0,SW,5.8,-,N/A,,Mostly Cloudy,220,2013-01-18 12:54:00
8:15 AM,21.2,15.8,80,30.38,10.0,SSW,5.8,-,N/A,,Overcast,210,2013-01-18 13:15:00
8:34 AM,21.2,15.8,80,30.38,10.0,SSW,6.9,-,N/A,,Overcast,210,2013-01-18 13:34:00
8:55 AM,21.2,15.8,80,30.38,10.0,SSW,9.2,-,N/A,,Overcast,200,2013-01-18 13:55:00
9:15 AM,21.2,15.8,80,30.38,10.0,SSW,9.2,-,N/A,,Overcast,200,2013-01-18 14:15:00
9:35 AM,23.0,15.8,74,30.38,10.0,SSW,6.9,-,N/A,,Overcast,200,2013-01-18 14:35:00
9:55 AM,24.8,15.8,69,30.38,10.0,SSW,9.2,-,N/A,,Overcast,200,2013-01-18 14:55:00
10:14 AM,24.8,15.8,69,30.38,10.0,SSW,9.2,-,N/A,,Overcast,200,2013-01-18 15:14:00
10:35 AM,24.8,17.6,74,30.37,10.0,SSW,11.5,-,N/A,,Overcast,210,2013-01-18 15:35:00
10:55 AM,24.8,17.6,74,30.36,10.0,SSW,9.2,-,N/A,,Overcast,200,2013-01-18 15:55:00
11:15 AM,28.4,17.6,64,30.36,10.0,SSW,11.5,-,N/A,,Mostly Cloudy,210,2013-01-18 16:15:00
11:35 AM,28.4,17.6,64,30.35,10.0,SSW,17.3,-,N/A,,Scattered Clouds,210,2013-01-18 16:35:00
11:54 AM,28.4,17.6,64,30.33,10.0,SSW,16.1,-,N/A,,Clear,210,2013-01-18 16:54:00
12:15 PM,28.4,19.4,69,30.31,10.0,SSW,15.0,-,N/A,,Clear,210,2013-01-18 17:15:00
12:35 PM,30.2,19.4,64,30.29,10.0,SSW,18.4,-,N/A,,Clear,210,2013-01-18 17:35:00
12:55 PM,32.0,19.4,60,30.27,10.0,SW,17.3,27.6,N/A,,Scattered Clouds,220,2013-01-18 17:55:00
1:14 PM,30.2,19.4,64,30.26,10.0,SSW,19.6,24.2,N/A,,Mostly Cloudy,210,2013-01-18 18:14:00
1:35 PM,32.0,19.4,60,30.23,10.0,SSW,19.6,25.3,N/A,,Mostly Cloudy,210,2013-01-18 18:35:00
1:55 PM,32.0,19.4,60,30.22,10.0,SSW,19.6,24.2,N/A,,Overcast,210,2013-01-18 18:55:00
2:15 PM,32.0,19.4,60,30.20,10.0,SSW,17.3,23.0,N/A,,Scattered Clouds,210,2013-01-18 19:15:00
2:35 PM,32.0,19.4,60,30.18,10.0,SSW,18.4,28.8,N/A,,Scattered Clouds,210,2013-01-18 19:35:00
2:55 PM,33.8,19.4,56,30.17,10.0,SSW,23.0,28.8,N/A,,Clear,200,2013-01-18 19:55:00
3:15 PM,33.8,21.2,60,30.15,10.0,SSW,19.6,25.3,N/A,,Clear,210,2013-01-18 20:15:00
3:35 PM,35.6,21.2,56,30.14,10.0,SSW,17.3,-,N/A,,Clear,210,2013-01-18 20:35:00
3:55 PM,35.6,21.2,56,30.13,10.0,SSW,21.9,32.2,N/A,,Clear,210,2013-01-18 20:55:00
4:15 PM,35.6,21.2,56,30.12,10.0,SSW,25.3,31.1,N/A,,Clear,200,2013-01-18 21:15:00
4:35 PM,35.6,21.2,56,30.11,10.0,SSW,20.7,31.1,N/A,,Clear,210,2013-01-18 21:35:00
4:54 PM,35.6,21.2,56,30.10,10.0,SSW,16.1,24.2,N/A,,Clear,200,2013-01-18 21:54:00
5:15 PM,35.6,21.2,56,30.09,10.0,SSW,19.6,24.2,N/A,,Clear,200,2013-01-18 22:15:00
5:35 PM,33.8,21.2,60,30.07,10.0,South,15.0,-,N/A,,Clear,190,2013-01-18 22:35:00
5:54 PM,33.8,21.2,60,30.06,10.0,South,15.0,25.3,N/A,,Clear,190,2013-01-18 22:54:00
6:15 PM,33.8,21.2,60,30.05,10.0,South,19.6,24.2,N/A,,Clear,190,2013-01-18 23:15:00
6:35 PM,33.8,21.2,60,30.04,10.0,SSW,19.6,24.2,N/A,,Clear,200,2013-01-18 23:35:00
6:54 PM,33.8,19.4,56,30.03,10.0,SSW,19.6,27.6,N/A,,Clear,200,2013-01-18 23:54:00
7:15 PM,33.8,19.4,56,30.02,10.0,SSW,20.7,28.8,N/A,,Clear,200,2013-01-19 00:15:00
7:35 PM,33.8,19.4,56,30.01,10.0,SSW,18.4,29.9,N/A,,Clear,200,2013-01-19 00:35:00
7:54 PM,35.6,19.4,52,30.02,10.0,SSW,18.4,26.5,N/A,,Clear,210,2013-01-19 00:54:00
8:15 PM,33.8,21.2,60,30.02,10.0,SSW,15.0,20.7,N/A,,Clear,210,2013-01-19 01:15:00
8:35 PM,33.8,21.2,60,30.01,10.0,SSW,17.3,-,N/A,,Clear,210,2013-01-19 01:35:00
8:55 PM,33.8,21.2,60,30.01,10.0,SSW,17.3,-,N/A,,Clear,210,2013-01-19 01:55:00
9:15 PM,33.8,21.2,60,30.01,10.0,SSW,15.0,-,N/A,,Clear,210,2013-01-19 02:15:00
9:34 PM,35.6,21.2,56,30.01,10.0,SW,18.4,27.6,N/A,,Clear,220,2013-01-19 02:34:00
9:55 PM,35.6,21.2,56,30.01,10.0,SW,18.4,25.3,N/A,,Clear,220,2013-01-19 02:55:00
10:34 PM,35.6,23.0,60,29.99,10.0,SW,18.4,24.2,N/A,,Clear,220,2013-01-19 03:34:00
10:55 PM,35.6,23.0,60,29.99,10.0,SW,20.7,26.5,N/A,,Clear,230,2013-01-19 03:55:00
11:15 PM,35.6,24.8,65,29.98,10.0,SW,19.6,26.5,N/A,,Clear,230,2013-01-19 04:15:00
11:35 PM,35.6,24.8,65,29.98,10.0,SW,18.4,27.6,N/A,,Clear,220,2013-01-19 04:35:00
11:55 PM,35.6,24.8,65,29.97,10.0,SW,16.1,23.0,N/A,,Clear,220,2013-01-19 04:55:00